Time,TemperatureF,DewpointF,PressureIn,WindDirection,WindDirectionDegrees,WindSpeedMPH,WindSpeedGustMPH,Humidity,HourlyPrecipIn,Conditions,Clouds,dailyrainin,SoftwareType,DateUTC
2013-02-19 00:03:00,42.3,39.0,29.92,NW,309,0.0,-999.0,87,-99.99,,,0.00,weatherlink.com 1.10,2013-02-19 08:03:00,
2013-02-19 00:18:00,42.5,39.0,29.92,NW,309,0.0,-999.0,88,-99.99,,,0.00,weatherlink.com 1.10,2013-02-19 08:18:00,
2013-02-19 00:33:00,42.8,40.0,29.91,NW,309,3.0,-999.0,88,-99.99,,,0.00,weatherlink.com 1.10,2013-02-19 08:33:00,
2013-02-19 00:48:00,43.0,40.0,29.89,NW,315,3.0,-999.0,89,-99.99,,,0.00,weatherlink.com 1.10,2013-02-19 08:48:00,
2013-02-19 01:03:00,43.1,40.0,29.88,North,350,1.0,-999.0,90,-99.99,,,0.00,weatherlink.com 1.10,2013-02-19 09:03:00,
2013-02-19 01:18:00,43.2,41.0,29.88,North,5,4.0,-999.0,90,-99.99,,,0.01,weatherlink.com 1.10,2013-02-19 09:18:00,
2013-02-19 01:33:00,43.3,41.0,29.88,NE,48,2.0,-999.0,91,-99.99,,,0.02,weatherlink.com 1.10,2013-02-19 09:33:00,
2013-02-19 01:48:00,43.4,41.0,29.86,NNE,21,1.0,-999.0,91,-99.99,,,0.02,weatherlink.com 1.10,2013-02-19 09:48:00,
2013-02-19 02:04:00,43.1,41.0,29.86,NE,34,3.0,-999.0,91,-99.99,,,0.02,weatherlink.com 1.10,2013-02-19 10:04:00,
2013-02-19 02:18:00,43.1,41.0,29.86,East,88,2.0,-999.0,92,-99.99,,,0.02,weatherlink.com 1.10,2013-02-19 10:18:00,
2013-02-19 02:34:00,43.5,41.0,29.85,ESE,103,4.0,-999.0,92,-99.99,,,0.03,weatherlink.com 1.10,2013-02-19 10:34:00,
2013-02-19 02:48:00,43.6,42.0,29.84,NE,53,2.0,-999.0,92,-99.99,,,0.03,weatherlink.com 1.10,2013-02-19 10:48:00,
2013-02-19 03:04:00,43.4,41.0,29.84,NE,53,2.0,-999.0,92,-99.99,,,0.03,weatherlink.com 1.10,2013-02-19 11:04:00,
2013-02-19 03:18:00,43.6,42.0,29.83,ENE,71,1.0,-999.0,93,-99.99,,,0.03,weatherlink.com 1.10,2013-02-19 11:18:00,
2013-02-19 03:34:00,43.9,42.0,29.83,ENE,74,3.0,-999.0,92,-99.99,,,0.03,weatherlink.com 1.10,2013-02-19 11:34:00,
2013-02-19 03:48:00,43.9,42.0,29.82,ENE,78,3.0,-999.0,93,-99.99,,,0.03,weatherlink.com 1.10,2013-02-19 11:48:00,
2013-02-19 04:04:00,44.0,42.0,29.82,ENE,66,2.0,-999.0,93,-99.99,,,0.03,weatherlink.com 1.10,2013-02-19 12:04:00,
2013-02-19 04:19:00,44.1,42.0,29.81,East,82,4.0,-999.0,93,-99.99,,,0.03,weatherlink.com 1.10,2013-02-19 12:19:00,
2013-02-19 04:34:00,44.1,42.0,29.80,East,81,2.0,-999.0,92,-99.99,,,0.03,weatherlink.com 1.10,2013-02-19 12:34:00,
2013-02-19 04:49:00,44.3,42.0,29.79,ESE,119,11.0,-999.0,92,-99.99,,,0.03,weatherlink.com 1.10,2013-02-19 12:49:00,
2013-02-19 05:04:00,44.3,42.0,29.79,East,97,12.0,-999.0,91,-99.99,,,0.03,weatherlink.com 1.10,2013-02-19 13:04:00,
2013-02-19 05:19:00,43.8,42.0,29.79,East,100,6.0,-999.0,92,-99.99,,,0.08,weatherlink.com 1.10,2013-02-19 13:19:00,
2013-02-19 05:34:00,43.8,42.0,29.79,East,87,5.0,-999.0,92,-99.99,,,0.08,weatherlink.com 1.10,2013-02-19 13:34:00,
2013-02-19 05:49:00,43.8,42.0,29.78,SE,136,8.0,-999.0,93,-99.99,,,0.09,weatherlink.com 1.10,2013-02-19 13:49:00,
2013-02-19 06:04:00,43.8,42.0,29.78,SSE,159,5.0,-999.0,93,-99.99,,,0.10,weatherlink.com 1.10,2013-02-19 14:04:00,
2013-02-19 06:19:00,44.2,43.0,29.77,SSE,153,7.0,-999.0,94,-99.99,,,0.11,weatherlink.com 1.10,2013-02-19 14:19:00,
2013-02-19 06:34:00,42.9,41.0,29.77,SW,226,18.0,-999.0,93,-99.99,,,0.14,weatherlink.com 1.10,2013-02-19 14:34:00,
2013-02-19 06:49:00,42.6,41.0,29.77,West,264,9.0,-999.0,92,-99.99,,,0.15,weatherlink.com 1.10,2013-02-19 14:49:00,
2013-02-19 07:04:00,42.9,41.0,29.77,SW,225,10.0,-999.0,91,-99.99,,,0.15,weatherlink.com 1.10,2013-02-19 15:04:00,
2013-02-19 07:19:00,43.0,40.0,29.78,SW,225,8.0,-999.0,90,-99.99,,,0.15,weatherlink.com 1.10,2013-02-19 15:19:00,
2013-02-19 07:34:00,42.8,40.0,29.77,West,269,2.0,-999.0,88,-99.99,,,0.15,weatherlink.com 1.10,2013-02-19 15:34:00,
2013-02-19 07:49:00,43.1,39.0,29.77,South,183,3.0,-999.0,86,-99.99,,,0.15,weatherlink.com 1.10,2013-02-19 15:49:00,
2013-02-19 08:04:00,43.8,39.0,29.77,SSW,201,9.0,-999.0,84,-99.99,,,0.15,weatherlink.com 1.10,2013-02-19 16:04:00,
2013-02-19 08:19:00,44.6,40.0,29.77,SSW,205,12.0,-999.0,85,-99.99,,,0.15,weatherlink.com 1.10,2013-02-19 16:19:00,
2013-02-19 08:34:00,44.7,41.0,29.77,West,276,6.0,-999.0,85,-99.99,,,0.15,weatherlink.com 1.10,2013-02-19 16:34:00,
2013-02-19 08:49:00,45.6,41.0,29.77,WNW,290,2.0,-999.0,84,-99.99,,,0.15,weatherlink.com 1.10,2013-02-19 16:49:00,
2013-02-19 09:04:00,43.9,39.0,29.77,West,280,5.0,-999.0,83,-99.99,,,0.15,weatherlink.com 1.10,2013-02-19 17:04:00,
2013-02-19 09:19:00,43.0,39.0,29.76,WNW,292,8.0,-999.0,87,-99.99,,,0.15,weatherlink.com 1.10,2013-02-19 17:19:00,
2013-02-19 09:34:00,42.0,38.0,29.77,WNW,291,3.0,-999.0,86,-99.99,,,0.17,weatherlink.com 1.10,2013-02-19 17:34:00,
2013-02-19 09:49:00,42.2,39.0,29.77,SSW,211,8.0,-999.0,89,-99.99,,,0.19,weatherlink.com 1.10,2013-02-19 17:49:00,
2013-02-19 10:04:00,42.5,38.0,29.77,SW,227,19.0,-999.0,85,-99.99,,,0.19,weatherlink.com 1.10,2013-02-19 18:04:00,
2013-02-19 10:19:00,43.3,39.0,29.77,WSW,257,15.0,-999.0,83,-99.99,,,0.19,weatherlink.com 1.10,2013-02-19 18:19:00,
2013-02-19 10:34:00,44.3,39.0,29.78,SW,233,8.0,-999.0,80,-99.99,,,0.19,weatherlink.com 1.10,2013-02-19 18:34:00,
2013-02-19 10:49:00,45.0,38.0,29.78,SW,221,11.0,-999.0,77,-99.99,,,0.19,weatherlink.com 1.10,2013-02-19 18:49:00,
2013-02-19 11:04:00,45.4,38.0,29.77,West,260,8.0,-999.0,76,-99.99,,,0.19,weatherlink.com 1.10,2013-02-19 19:04:00,
2013-02-19 11:19:00,45.1,37.0,29.77,SSW,213,18.0,-999.0,74,-99.99,,,0.19,weatherlink.com 1.10,2013-02-19 19:19:00,
2013-02-19 11:34:00,45.3,37.0,29.77,SW,215,16.0,-999.0,73,-99.99,,,0.19,weatherlink.com 1.10,2013-02-19 19:34:00,
2013-02-19 11:49:00,45.7,38.0,29.77,SW,228,12.0,-999.0,75,-99.99,,,0.19,weatherlink.com 1.10,2013-02-19 19:49:00,
2013-02-19 12:04:00,46.2,38.0,29.77,West,281,5.0,-999.0,72,-99.99,,,0.19,weatherlink.com 1.10,2013-02-19 20:04:00,
2013-02-19 12:19:00,47.1,38.0,29.76,WSW,252,9.0,-999.0,71,-99.99,,,0.19,weatherlink.com 1.10,2013-02-19 20:19:00,
2013-02-19 12:34:00,46.5,38.0,29.76,SW,236,6.0,-999.0,71,-99.99,,,0.19,weatherlink.com 1.10,2013-02-19 20:34:00,
2013-02-19 12:49:00,46.5,38.0,29.75,NNW,341,6.0,-999.0,73,-99.99,,,0.19,weatherlink.com 1.10,2013-02-19 20:49:00,
2013-02-19 13:04:00,47.0,38.0,29.75,SSW,207,9.0,-999.0,72,-99.99,,,0.19,weatherlink.com 1.10,2013-02-19 21:04:00,
2013-02-19 13:19:00,42.7,36.0,29.76,SSW,209,6.0,-999.0,77,-99.99,,,0.20,weatherlink.com 1.10,2013-02-19 21:19:00,
2013-02-19 13:34:00,41.5,37.0,29.75,SSW,208,4.0,-999.0,84,-99.99,,,0.20,weatherlink.com 1.10,2013-02-19 21:34:00,
2013-02-19 13:49:00,44.8,39.0,29.75,SW,217,8.0,-999.0,81,-99.99,,,0.20,weatherlink.com 1.10,2013-02-19 21:49:00,
2013-02-19 14:04:00,46.4,39.0,29.74,WSW,238,9.0,-999.0,74,-99.99,,,0.20,weatherlink.com 1.10,2013-02-19 22:04:00,
2013-02-19 14:19:00,43.9,36.0,29.74,SW,224,15.0,-999.0,75,-99.99,,,0.20,weatherlink.com 1.10,2013-02-19 22:19:00,
2013-02-19 14:34:00,43.4,36.0,29.74,SSE,164,13.0,-999.0,75,-99.99,,,0.20,weatherlink.com 1.10,2013-02-19 22:34:00,
2013-02-19 14:49:00,44.4,38.0,29.75,SW,214,18.0,-999.0,77,-99.99,,,0.20,weatherlink.com 1.10,2013-02-19 22:49:00,
2013-02-19 15:04:00,46.0,38.0,29.75,SW,230,6.0,-999.0,74,-99.99,,,0.20,weatherlink.com 1.10,2013-02-19 23:04:00,
2013-02-19 15:19:00,45.8,40.0,29.75,WSW,250,9.0,-999.0,79,-99.99,,,0.21,weatherlink.com 1.10,2013-02-19 23:19:00,
2013-02-19 15:34:00,45.8,38.0,29.75,WSW,238,11.0,-999.0,73,-99.99,,,0.21,weatherlink.com 1.10,2013-02-19 23:34:00,
2013-02-19 15:49:00,46.4,37.0,29.74,SSW,207,16.0,-999.0,71,-99.99,,,0.21,weatherlink.com 1.10,2013-02-19 23:49:00,
2013-02-19 16:04:00,46.1,38.0,29.74,WSW,257,8.0,-999.0,73,-99.99,,,0.21,weatherlink.com 1.10,2013-02-20 00:04:00,
2013-02-19 16:19:00,45.3,36.0,29.75,SW,219,13.0,-999.0,71,-99.99,,,0.21,weatherlink.com 1.10,2013-02-20 00:19:00,
2013-02-19 16:34:00,45.4,36.0,29.74,SW,229,17.0,-999.0,70,-99.99,,,0.21,weatherlink.com 1.10,2013-02-20 00:34:00,
2013-02-19 16:49:00,45.5,37.0,29.74,SW,217,18.0,-999.0,73,-99.99,,,0.21,weatherlink.com 1.10,2013-02-20 00:49:00,
2013-02-19 17:04:00,44.3,37.0,29.74,SW,225,12.0,-999.0,75,-99.99,,,0.21,weatherlink.com 1.10,2013-02-20 01:04:00,
2013-02-19 17:19:00,44.1,36.0,29.74,WSW,238,7.0,-999.0,74,-99.99,,,0.21,weatherlink.com 1.10,2013-02-20 01:19:00,
2013-02-19 17:34:00,43.3,36.0,29.74,WSW,239,4.0,-999.0,75,-99.99,,,0.21,weatherlink.com 1.10,2013-02-20 01:34:00,
2013-02-19 17:49:00,42.9,36.0,29.74,SW,230,10.0,-999.0,75,-99.99,,,0.21,weatherlink.com 1.10,2013-02-20 01:49:00,
2013-02-19 18:04:00,42.9,36.0,29.75,WSW,245,10.0,-999.0,76,-99.99,,,0.21,weatherlink.com 1.10,2013-02-20 02:04:00,
2013-02-19 18:19:00,42.9,36.0,29.75,West,279,0.0,-999.0,78,-99.99,,,0.21,weatherlink.com 1.10,2013-02-20 02:19:00,
2013-02-19 18:34:00,42.4,36.0,29.75,West,279,2.0,-999.0,78,-99.99,,,0.21,weatherlink.com 1.10,2013-02-20 02:34:00,
2013-02-19 18:49:00,41.8,35.0,29.76,WNW,298,5.0,-999.0,78,-99.99,,,0.21,weatherlink.com 1.10,2013-02-20 02:49:00,
2013-02-19 19:04:00,41.4,35.0,29.77,West,281,5.0,-999.0,79,-99.99,,,0.21,weatherlink.com 1.10,2013-02-20 03:04:00,
2013-02-19 19:19:00,41.3,35.0,29.77,West,268,8.0,-999.0,79,-99.99,,,0.21,weatherlink.com 1.10,2013-02-20 03:19:00,
2013-02-19 19:34:00,41.0,35.0,29.77,WNW,286,5.0,-999.0,80,-99.99,,,0.21,weatherlink.com 1.10,2013-02-20 03:34:00,
2013-02-19 19:49:00,40.5,35.0,29.78,WNW,298,4.0,-999.0,81,-99.99,,,0.21,weatherlink.com 1.10,2013-02-20 03:49:00,
2013-02-19 20:04:00,40.3,35.0,29.79,WNW,287,5.0,-999.0,82,-99.99,,,0.21,weatherlink.com 1.10,2013-02-20 04:04:00,
2013-02-19 20:19:00,40.0,35.0,29.79,WNW,298,4.0,-999.0,83,-99.99,,,0.21,weatherlink.com 1.10,2013-02-20 04:19:00,
2013-02-19 20:34:00,39.6,35.0,29.80,West,274,4.0,-999.0,84,-99.99,,,0.21,weatherlink.com 1.10,2013-02-20 04:34:00,
2013-02-19 20:49:00,39.9,36.0,29.80,West,269,1.0,-999.0,85,-99.99,,,0.21,weatherlink.com 1.10,2013-02-20 04:49:00,
2013-02-19 21:04:00,40.6,37.0,29.80,West,271,2.0,-999.0,85,-99.99,,,0.21,weatherlink.com 1.10,2013-02-20 05:04:00,
2013-02-19 21:19:00,40.7,37.0,29.81,West,271,5.0,-999.0,85,-99.99,,,0.21,weatherlink.com 1.10,2013-02-20 05:19:00,
2013-02-19 21:34:00,40.3,36.0,29.82,WSW,257,3.0,-999.0,83,-99.99,,,0.21,weatherlink.com 1.10,2013-02-20 05:34:00,
2013-02-19 21:49:00,40.2,35.0,29.82,West,271,6.0,-999.0,80,-99.99,,,0.21,weatherlink.com 1.10,2013-02-20 05:49:00,
2013-02-19 22:04:00,40.2,34.0,29.82,West,274,7.0,-999.0,79,-99.99,,,0.21,weatherlink.com 1.10,2013-02-20 06:04:00,
2013-02-19 22:19:00,40.3,34.0,29.82,SW,236,7.0,-999.0,79,-99.99,,,0.21,weatherlink.com 1.10,2013-02-20 06:19:00,
2013-02-19 22:34:00,40.2,34.0,29.83,WSW,256,3.0,-999.0,78,-99.99,,,0.21,weatherlink.com 1.10,2013-02-20 06:34:00,
2013-02-19 22:49:00,40.3,34.0,29.84,WNW,290,4.0,-999.0,78,-99.99,,,0.21,weatherlink.com 1.10,2013-02-20 06:49:00,
2013-02-19 23:04:00,40.0,34.0,29.84,West,267,3.0,-999.0,78,-99.99,,,0.21,weatherlink.com 1.10,2013-02-20 07:04:00,
2013-02-19 23:19:00,39.6,33.0,29.84,WNW,292,3.0,-999.0,78,-99.99,,,0.21,weatherlink.com 1.10,2013-02-20 07:19:00,
2013-02-19 23:34:00,39.8,34.0,29.84,West,275,8.0,-999.0,79,-99.99,,,0.21,weatherlink.com 1.10,2013-02-20 07:34:00,
2013-02-19 23:49:00,40.1,34.0,29.86,SSW,213,5.0,-999.0,79,-99.99,,,0.21,weatherlink.com 1.10,2013-02-20 07:49:00,